星链-6070 (STARLINK-6070 )

导读 | 星芒AI

STARLINK-6070 是 SpaceX 为 Starlink 项目发射的第 6070 颗卫星,属于其低轨宽带互联网星座的一部分。该卫星旨在为全球用户提供高速、低延迟的互联网服务,特别是在网络基础设施薄弱的地区。它采用先进的通信技术,支持 Ku 和 Ka 频段,具备自动避撞功能,以确保太空安全。STARLINK-6070 的成功部署进一步增强了 Starlink 网络的覆盖能力与稳定性,推动了全球互联网接入的普及。

基本信息
目录编号:
56802
目录名称:
STARLINK-6070
国际标识:
2023-078AM
轨道中心:
EARTH
卫星名称:
星链-6070
卫星全名:
星链-6070 (STARLINK-6070 )
卫星状态:
在轨 (已飞行935 天)
发射日期:
2023-05-31 UTC
国别 :
美国 (US)
星等 :
--
轨道信息
数据来源 国际轨道数据
星历时间: 2025-12-21T20:16:27+0800
5小时前
查看轨道信息
半长轴: 6950.204km
偏心率: 0.0002573
轨道倾角: 69.999°
近地点辐角 280.639°
升交点赤经 161.554°
平近点角 79.448°
近地点: 570.278km
远地点: 573.856km
周期: 96.107分钟
每日圈数: 14.983266
详细信息
固有亮度:
5
最大亮度:
2.5
卫星平台:
Starlink v1.5
覆盖范围:
全球
运营商:
太空探索技术公司
运营商所在国:
美国
制造商(研发单位):
太空探索技术公司
制造商所在国:
美国
使用方式:
暂无
卫星简介
星链(Starlink)计划是由太空探索技术公司(SpaceX)提出的一个巨型低轨卫星互联网星座项目,计划在2019年至2024年间在太空搭建由约1.2万颗卫星组成的“星链”网络,其中1584颗将部署在地球上空550千米处的近地轨道,并从2020年开始工作。该卫星仍在工作。
2D轨道图
3D轨道图
轨道高度分析图
轨道倾角分析图
轨道综合分析图
查看轨道综合分析图